Location: Newark
(43.6486°N, 79.3853°W)
Time: 18:40:13
(UTC+00:00)

STARLINK-1311 - Pass Details

Date: 08 April 2020
Orbit: 356 x 363 km, 53.0° (Epoch: 24 May)

Event Time Altitude Azimuth Distance (km) Brightness Sun altitude
Exits shadow 08:41:07 12° 339° (NNW) 1,239 5.6 -21.6°
Drops below altitude 10° 08:44:07 10° 41° (NE) 1,364 6.7 -21.1°
Enters shadow 09:40:05 -71° 277° (W) 12,481 10.4 -12.2°
Maximum altitude 10:18:43 31° 25° (NNE) 676 4.6 -5.6°
